Tiempo cada hora Murali

Hoy, 31 Octubre, Sábado

Tiempo Temperatura Precipitaciones Viento Presión Humedad
00:00 +2°C° 0.1 mm 3 mps 755 mmHg 85%
01:00 +2°C° 0.1 mm 3 mps 754 mmHg 87%
02:00 +2°C° 0.1 mm 3 mps 754 mmHg 89%
03:00 +2°C° 0 mm 3 mps 754 mmHg 91%
04:00 +2°C° 0 mm 3 mps 754 mmHg 90%
05:00 +2°C° 0 mm 3 mps 753 mmHg 89%
06:00 +2°C° 0 mm 3 mps 753 mmHg 89%
07:00 +2°C° 0.1 mm 3 mps 753 mmHg 88%
08:00 +2°C° 0.1 mm 3 mps 753 mmHg 87%
09:00 +2°C° 0 mm 3 mps 753 mmHg 86%
10:00 +2°C° 0.3 mm 3 mps 753 mmHg 88%
11:00 +2°C° 0.3 mm 3 mps 753 mmHg 90%
12:00 +2°C° 0.3 mm 3 mps 753 mmHg 92%
13:00 +2°C° 0.2 mm 3 mps 753 mmHg 93%
14:00 +4°C° 0.2 mm 2 mps 753 mmHg 94%
15:00 +4°C° 0.2 mm 2 mps 753 mmHg 96%
16:00 +4°C° 0.2 mm 2 mps 753 mmHg 96%
17:00 +3°C° 0.2 mm 2 mps 753 mmHg 97%
18:00 +3°C° 0.2 mm 2 mps 753 mmHg 97%
19:00 +4°C° 0 mm 2 mps 753 mmHg 97%
20:00 +4°C° 0 mm 2 mps 753 mmHg 97%
21:00 +4°C° 0 mm 2 mps 754 mmHg 97%
22:00 +4°C° 0 mm 2 mps 754 mmHg 96%
23:00 +3°C° 0 mm 3 mps 754 mmHg 95%

Mañana, 1 Noviembre, Domingo

Tiempo Temperatura Precipitaciones Viento Presión Humedad
00:00 +3°C° 0 mm 3 mps 754 mmHg 95%
01:00 +3°C° 0 mm 4 mps 755 mmHg 93%
02:00 +2°C° 0 mm 5 mps 755 mmHg 92%
03:00 +2°C° 0 mm 5 mps 756 mmHg 91%
04:00 +1°C° 0 mm 5 mps 756 mmHg 90%
05:00 +1°C° 0 mm 5 mps 757 mmHg 89%
06:00 0°C° 0 mm 5 mps 757 mmHg 88%
07:00 0°C° 0 mm 5 mps 758 mmHg 86%
08:00 0°C° 0 mm 5 mps 758 mmHg 84%
09:00 0°C° 0 mm 5 mps 759 mmHg 82%
10:00 0°C° 0 mm 4 mps 759 mmHg 80%
11:00 0°C° 0 mm 4 mps 759 mmHg 79%
12:00 0°C° 0 mm 4 mps 759 mmHg 77%
13:00 +1°C° 0 mm 3 mps 759 mmHg 77%
14:00 +1°C° 0 mm 3 mps 759 mmHg 76%
15:00 +1°C° 0 mm 3 mps 760 mmHg 76%
16:00 +1°C° 0 mm 3 mps 760 mmHg 78%
17:00 +1°C° 0 mm 2 mps 760 mmHg 80%
18:00 +1°C° 0 mm 2 mps 760 mmHg 82%
19:00 -1°C° 0 mm 2 mps 760 mmHg 85%
20:00 -1°C° 0 mm 2 mps 760 mmHg 87%
21:00 -2°C° 0 mm 2 mps 760 mmHg 89%
22:00 -2°C° 0 mm 2 mps 760 mmHg 89%
23:00 -2°C° 0 mm 2 mps 760 mmHg 89%

Pasado mañana, 2 Noviembre, Lunes

Tiempo Temperatura Precipitaciones Viento Presión Humedad
00:00 -2°C° 0 mm 2 mps 760 mmHg 89%
01:00 -2°C° 0 mm 2 mps 759 mmHg 89%
02:00 -2°C° 0 mm 2 mps 759 mmHg 89%
03:00 -2°C° 0 mm 2 mps 759 mmHg 89%
04:00 -2°C° 0 mm 2 mps 759 mmHg 89%
05:00 -2°C° 0 mm 2 mps 759 mmHg 89%
06:00 -2°C° 0 mm 2 mps 759 mmHg 88%
07:00 -2°C° 0 mm 2 mps 759 mmHg 86%
08:00 -1°C° 0 mm 3 mps 759 mmHg 84%
09:00 -1°C° 0 mm 3 mps 759 mmHg 82%
10:00 0°C° 0 mm 3 mps 759 mmHg 77%
11:00 +2°C° 0 mm 2 mps 759 mmHg 73%
12:00 +2°C° 0 mm 2 mps 760 mmHg 69%
13:00 +2°C° 0 mm 2 mps 760 mmHg 70%
14:00 +2°C° 0 mm 2 mps 760 mmHg 72%
15:00 +2°C° 0 mm 2 mps 760 mmHg 73%
16:00 +1°C° 0 mm 2 mps 760 mmHg 75%
17:00 -1°C° 0 mm 3 mps 760 mmHg 78%
18:00 -2°C° 0 mm 3 mps 760 mmHg 80%
19:00 -2°C° 0 mm 3 mps 760 mmHg 81%
20:00 -2°C° 0 mm 3 mps 760 mmHg 81%
21:00 -2°C° 0 mm 3 mps 761 mmHg 81%
22:00 -2°C° 0 mm 3 mps 760 mmHg 81%
23:00 -2°C° 0 mm 3 mps 760 mmHg 81%

3 Noviembre, Martes

Tiempo Temperatura Precipitaciones Viento Presión Humedad
00:00 -2°C° 0 mm 3 mps 760 mmHg 81%
01:00 -2°C° 0 mm 3 mps 761 mmHg 81%
02:00 -2°C° 0 mm 3 mps 761 mmHg 81%
03:00 -2°C° 0 mm 3 mps 761 mmHg 82%
04:00 -2°C° 0 mm 3 mps 761 mmHg 82%
05:00 -2°C° 0 mm 3 mps 761 mmHg 82%
06:00 -4°C° 0 mm 3 mps 761 mmHg 82%
07:00 -2°C° 0 mm 3 mps 761 mmHg 80%
08:00 -2°C° 0 mm 4 mps 761 mmHg 78%
09:00 -2°C° 0 mm 4 mps 761 mmHg 75%
10:00 -1°C° 0 mm 4 mps 761 mmHg 74%
11:00 +1°C° 0 mm 3 mps 761 mmHg 72%
12:00 +1°C° 0 mm 3 mps 761 mmHg 70%
13:00 +1°C° 0 mm 3 mps 761 mmHg 73%
14:00 +1°C° 0 mm 3 mps 761 mmHg 75%
15:00 +2°C° 0 mm 2 mps 761 mmHg 78%
16:00 +1°C° 0 mm 2 mps 761 mmHg 80%
17:00 +1°C° 0 mm 2 mps 760 mmHg 83%
18:00 -1°C° 0 mm 2 mps 760 mmHg 85%
19:00 -1°C° 0 mm 2 mps 760 mmHg 86%
20:00 -1°C° 0 mm 2 mps 760 mmHg 87%
21:00 -1°C° 0 mm 2 mps 760 mmHg 88%
22:00 -1°C° 0 mm 2 mps 760 mmHg 89%
23:00 -1°C° 0 mm 2 mps 760 mmHg 89%

4 Noviembre, Miércoles

Tiempo Temperatura Precipitaciones Viento Presión Humedad
00:00 -1°C° 0 mm 2 mps 760 mmHg 90%
01:00 +1°C° 0 mm 1 mps 760 mmHg 90%
02:00 +1°C° 0 mm 1 mps 760 mmHg 90%
03:00 +1°C° 0 mm 1 mps 760 mmHg 89%
04:00 +1°C° 0 mm 1 mps 760 mmHg 89%
05:00 +1°C° 0 mm 1 mps 760 mmHg 89%
06:00 +2°C° 0 mm 1 mps 760 mmHg 89%
07:00 +2°C° 0 mm 1 mps 760 mmHg 86%
08:00 +3°C° 0 mm 1 mps 760 mmHg 84%
09:00 +4°C° 0 mm 1 mps 760 mmHg 82%
10:00 +4°C° 0 mm 1 mps 760 mmHg 79%
11:00 +5°C° 0 mm 1 mps 760 mmHg 75%
12:00 +5°C° 0 mm 0 mps 760 mmHg 72%
13:00 +5°C° 0 mm 0 mps 760 mmHg 76%
14:00 +5°C° 0 mm 1 mps 760 mmHg 80%
15:00 +4°C° 0 mm 1 mps 760 mmHg 84%
16:00 +4°C° 0 mm 1 mps 760 mmHg 85%
17:00 +3°C° 0 mm 1 mps 760 mmHg 85%
18:00 +3°C° 0 mm 1 mps 760 mmHg 86%
19:00 +3°C° 0 mm 1 mps 760 mmHg 87%
20:00 +2°C° 0 mm 1 mps 760 mmHg 87%
21:00 +2°C° 0 mm 1 mps 759 mmHg 87%
22:00 +2°C° 0 mm 1 mps 759 mmHg 88%
23:00 +2°C° 0 mm 1 mps 759 mmHg 89%

5 Noviembre, Jueves

Tiempo Temperatura Precipitaciones Viento Presión Humedad
00:00 +2°C° 0 mm 1 mps 759 mmHg 89%
01:00 +1°C° 0 mm 2 mps 759 mmHg 90%
02:00 +1°C° 0 mm 2 mps 759 mmHg 90%
03:00 +1°C° 0 mm 2 mps 759 mmHg 91%
04:00 +1°C° 0 mm 2 mps 758 mmHg 92%
05:00 +1°C° 0 mm 2 mps 758 mmHg 93%
06:00 +1°C° 0 mm 2 mps 758 mmHg 94%
07:00 +1°C° 0 mm 2 mps 758 mmHg 93%
08:00 +2°C° 0 mm 2 mps 758 mmHg 93%
09:00 +3°C° 0 mm 2 mps 757 mmHg 93%
10:00 +2°C° 0 mm 3 mps 757 mmHg 92%
11:00 +3°C° 0 mm 3 mps 757 mmHg 91%
12:00 +4°C° 0 mm 3 mps 757 mmHg 90%
13:00 +4°C° 0 mm 3 mps 756 mmHg 91%
14:00 +4°C° 0 mm 3 mps 756 mmHg 92%
15:00 +4°C° 0 mm 3 mps 756 mmHg 93%
16:00 +3°C° 0 mm 3 mps 755 mmHg 94%
17:00 +3°C° 0 mm 3 mps 755 mmHg 95%
18:00 +3°C° 0 mm 3 mps 755 mmHg 96%
19:00 +3°C° 0 mm 3 mps 755 mmHg 96%
20:00 +3°C° 0 mm 3 mps 755 mmHg 96%
21:00 +4°C° 0 mm 3 mps 755 mmHg 96%
22:00 +4°C° 0 mm 3 mps 755 mmHg 96%
23:00 +4°C° 0 mm 3 mps 755 mmHg 96%
Mostrar más

Necesitamos Su Consentimiento

Meteoprog y nuestros Proveedores de Servicios pueden almacenar y acceder a sus datos personales como cookies, identificadores de dispositivo u otras tecnologías similares de su dispositivo y procesar dichos datos para personalizar contenido y anuncios, además de ofrecer funciones de redes sociales y analizar el tráfico.

  • Almacenar y/o acceder a información en su dispositivo

    Se puede almacenar o acceder a cookies, identificadores de dispositivo u otra información de su dispositivo para los fines anteriormente indicados.

  • Anuncios y contenido personalizados, medición de anuncios y contenido, percepciones del público, y desarrollo de productos

    Los anuncios y el contenido pueden personalizarse en base a su perfil. Se pueden añadir más datos para personalizar mejor los anuncios y contenidos. Se puede medir el rendimiento de los anuncios y contenidos. Se puede obtener la percepción sobre el público que ha visto los anuncios y contenidos. Dichos datos pueden usarse para desarrollar o mejorar la experiencia del usuario, sistemas y software.

Al hacer clic en ‘Estoy De Acuerdo’ usted permitirá el uso de las cookies, identificadores de dispositivo, balizas web u otras tecnologías similares indicadas. Su configuración puede cambiarse desde el navegador de su dispositivo.

Para ciertos fines, los intereses legítimos pueden ser considerados por encima del consentimiento. Puede leer más sobre ello en nuestra Política de Privacidad y Cookies.